Volver al catálogo

COSMOS 2251 DEB

ActivoLEO
NORAD 34425·DEBRIS·🇷🇺 Russia

Lanzado Jun 16, 1993 desde Plesetsk Cosmodrome

Loading…

Próximos Pases (próximas 24 horas)

TLE

ActualizadoSource: Space-Track

Época: Sep 14, 2026, 08:54 UTC

1 34425U 93036RS  26257.37138189  .00001232  00000-0  24244-3 0  9998
2 34425  74.0148 245.4970 0028384 295.2908  64.5319 14.63491175927710

Sigue COSMOS 2251 DEB en tiempo real con AllMySat

Download on the App Store